Погода в Верхнеимбатске

Погода в Верхнеимбатске : погода сейчас, прогноз погоды и архив. Всё, что Вы хотите узнать о погоде в Верхнеимбатске!

Хотите узнать прогноз погоды в Верхнеимбатске? Тогда Вам сюда: Погода в Верхнеимбатске

Поиск расширенной информации на нашем сайте:

Другие новости

Новости СМИ2

Главная страница сайта

Новости сайта

03.07.2017

Напоминаем, что на нашем специализированном сайте Метеоцентр.Азия вы можете получить высокодетализированные автоматические прогнозы погоды по пунктам России, СНГ и мира в авиационном формате (включающие направление и скорость ветра, видимость, явления погоды, количество и форму облачности, нижнюю и верхнюю границу облачности).


Погода в Верхнеимбатске - сегодня

Время (UTC), дата Ветер
(°,м/с) 
Видим.   Явления Облачность Т
(°С)
Тd
(°С)
f(%) Тe
(°С)
Pmin
(гПа)
dP
(гПа)
Po
(мм)
O2
(г/м3)
Тmin Tmax R s Состояние
почвы
03 19.04.18 120 (ЮВ) 20000 м    3/0 верхняя 
[Ci fib]
-9.5 -17.8 51 -12  1015.2  -0.8  757  317           
06 19.04.18 140 (ЮВ) 4{10}  20000 м    10/0 средняя 
[As trans]
-5.1 -15.4 44 -8  1013.6  -1.5  756  312           
09 19.04.18 140 (ЮВ) 5{12}  20000 м    10/0 средняя 
[As trans]
-3.3 -15.1 40 -7  1012  -1.6  755  309           
12 19.04.18 130 (ЮВ) 4{11}  20000 м    10/0 средняя 
[As trans]
-2.8 -12.4 48 -6  1010.5  -1.4  754  308    -2.8       
15 19.04.18 130 (ЮВ) н/о    10/0 средняя 
[As trans]
-3 -11.1 54 -7  1010.9  0.3  754  308           
18 19.04.18 120 (ЮВ) 4{10}  н/о    10/0 средняя 
[As trans]
-3 -11.6 51 -6  1008.4  -1.6  753  308           
21 19.04.18 110 (В) 5{10}  н/о    10/0 средняя 
[As trans]
-3.5 -12 52 -7  1007.6  -1.6  751  308           
00 20.04.18 120 (ЮВ) 4{11}  20000 м    10/0 средняя 
[As op]
-3 -8.8 64 -6  1006.9  -0.7  751  307  -3.7      102  равномерный
сухой снег
100% 
03 20.04.18 120 (ЮВ) 20000 м    8/4 600 м средняя 
[Cu Sc|As op]
-1 -8.4 57 -4  1005.3  -1.5  750  304           
06 20.04.18 140 (ЮВ) 5{12}  20000 м    10/6 600 м кучево-дожд., средняя 
[Cb cap|As op]
+2 -6.4 54 -1  1004.8  -0.5  749  300           
09 20.04.18 130 (ЮВ) 4{12}  20000 м    10/3 600 м кучево-дожд., средняя 
[Cb cap|As op]
+1.9 -4.2 64 1004.4  -0.4  749  300           
12 20.04.18 140 (ЮВ) 6-12{14}  2000 м  ливневой снег  10/10 600 м кучево-дожд. 
[Cb cap]
+0.2 -1.8 86 -3  1003.5  -0.9  748  302    +2.9  0.3     
18 20.04.18 140 (ЮВ) н/о  слаб. ливневой снег  10/10 600 м кучево-дожд. 
[Cb cap]
+0.8 +0 94 -2  999.9  -2.1  746  300           
00 21.04.18 140 (ЮВ) 10 км  слаб. ливневой снег  10/10 600 м кучево-дожд. 
[Cb cap]
+0.7 -0.1 94 -1  998.3  -0.2  745  299  -0.1    101  равномерный
мокрый или
старый снег
100% 
03 21.04.18 130 (ЮВ) 4000 м  слаб. ливневой снег  10/8 600 м кучево-дожд., средняя 
[Cb cap|As op]
+1 +0.5 96 -1  998  -0.3  744  299           
06 21.04.18 130 (ЮВ) 10 км  слаб. ливневой дождь  10/5 600 м кучево-дожд., средняя 
[Cb cap|As op]
+2 +1.2 94 +1  996.8  -1.1  743  297           
09 21.04.18 140 (ЮВ) 20000 м  {ливн. осадки}  10/4 600 м кучево-дожд., средняя 
[Cb cap|As op]
+3 +1.5 90 +2  996.8  743  296           
12 21.04.18 270 (З) 2000 м  ливневой снег  10/10 600 м кучево-дожд. 
[Cb cap]
+0.2 -0.4 96 -2  997.7  0.8  744  300    +3.1     
15 21.04.18 270 (З) н/о  слаб. ливневой снег  10/10 600 м кучево-дожд. 
[Cb cap]
-1.7 -2.2 96 -4  999.7  746  303           
18 21.04.18 280 (З) н/о  {ливн. осадки}  4/4 600 м 
[Sc]
-3.3 -4.4 92 -5  1002.3  2.4  747  305           
21 21.04.18 270 (З) н/о    10/0 средняя 
[As op]
-6.5 -8.5 86 -9  1003.9  1.6  749  310           
00 22.04.18 320 (СЗ) 20000 м    10/0 средняя 
[As op]
-7.6 -10.2 82 -9  1004.2  0.3  749  311  -7.6    103  равномерный
сухой снег
100% 
03 22.04.18 310 (СЗ) 20000 м    10/0 верхняя 
[Cs]
-6 -11.8 63 -9  1004.5  0.3  749  310           
06 22.04.18 270 (З) 20000 м    10/0 верхняя 
[Cs]
-5 -10.4 66 -7  1004.1  -0.4  749  308           
09 22.04.18 320 (СЗ) 20000 м    10/0 верхняя 
[Cs]
-3.9 -11.1 57 -6  1003.2  -0.9  748  307           
Время (UTC), дата Ветер
(°,м/с) 
Видим.   Явления Облачность Т
(°С)
Тd
(°С)
f(%) Тe
(°С)
Pmin
(гПа)
dP
(гПа)
Po
(мм)
O2
(г/м3)
Тmin Tmax R s Состояние
почвы

Для получения пояснительной информации подведите курсор к названию столбца.

ПОГОДА в Верхнеимбатске - архив

Всё, что Вы хотите узнать о погоде в Верхнеимбатске - удобно и подробно!

Выберите нужную дату (начиная с 1 января 2015* года) и нажмите кнопку "Найти".
Будут отображены архивные сводки погоды по пункту Верхнеимбатск, начиная с указанной даты.


Отображать данные в формате CSV (для использования в таблицах Excel)


Внимание! Наш архив погоды предназначен исключительно для личного некоммерческого использования в познавательных целях. Если Вам необходимы официальные справки о состоянии погоды (для производственных, юридических, коммерческих и т.п. целей), обращайтесь в органы Росгидромета.

*Примечание: данная дата относится к архиву по метеостанциям СССР (Россия, СНГ, Балтия).
Архив по метеостанциям Зарубежной Европы и Азии (кроме Китая) хранится 10 дней, по другим регионам земного шара (Китай, Африка, Америка, Австралия, Океания) - 1 день.

Верхнеимбатск - район местоположения метеостанции


Название, широта, долгота, высота метеостанции:
Верхнеимбатск 63.2°ш. 87.9°д. 46 м над ур. моря [Российская Федерация]

Дополнительная информация

В oтличие oт бoльшинства пoгoдных сайтoв мы публикуем пoдрoбную метеoинфoрмацию в детальнoм прoфессиoнальнoм фoрмате.

Характеристики температуры и влажнoсти вoздуха измеряются на высoте 2 м в тени вдали oт зданий и деревьев.
Скoрoсть ветра измеряется на высoте 10 м (на урoвне рoста челoвека скoрoсть ветра ниже в 1.5-2 раза). Если метеoстанция нахoдится в гoрoде или в лесу, тo скoрoсть ветра занижена на 2-4 м/с пo сравнению с oткрытым местoм. Скoрoсть ветра над акватoриями крупных рек и oзёр, а также на вершинах хoлмoв на 2-5 м/с выше, чем в oбычных услoвиях.
Атмoсфернoе давление в разных тoчках местнoсти мoжет значительнo oтличаться oт давления на метеoстанции, в зависимoсти oт услoвий рельефа (при пoдъёме на 10 м давление пoнижается примернo на 1 мм рт.ст.).